User: anonymous   Login
Location: Unspecified
(0.0000°N, 0.0000°E)
Time: 21:53:54
(UTC+02:00)
Language:

GPS 2-05 Rocket1 - Orbit

View from above orbital plane
View from above orbital plane
View from above satellite
View from above satellite

Ground track
Ground track

The orbit data is extracted from the following two-line orbital elements,

1 20362U 89097B   16151.58638534  .00009273  00000-0  17856-3 0  9993
2 20362  35.6085 196.9012 0067136  37.4727  92.5048 15.44673392440474
Epoch (UTC): 30 May 2016 14:04:23
Eccentricity: 0.0067136
inclination: 35.6085°
perigee height: 386 km
apogee height: 478 km
right ascension of ascending node: 196.9012°
argument of perigee: 37.4727°
revolutions per day: 15.44673392
mean anomaly at epoch: 92.5048°
orbit number at epoch: 44047

The dashed part of the orbit path shows where the satellite is in the earth's shadow,  

DLR